Sacramento International, CA

11:54 PM PDT on May 25, 2017 (GMT -0700)
Sacramento International

Weather History for KSMF - July, 2013

Change the Weather History Date:

Thursday, July 25, 2013

  Actual Average Record
Temperature  
Mean Temperature 80 °F -  
Max Temperature 96 °F 94 °F 112 °F (1975)
Min Temperature 64 °F 58 °F 51 °F (1951)
Cooling Degree Days 15    
Growing Degree Days 30 (Base 50)    
Moisture  
Dew Point 57 °F    
Average Humidity 49    
Maximum Humidity 70    
Minimum Humidity 29    
Precipitation  
Precipitation 0.00 in - - ()
Sea Level Pressure  
Sea Level Pressure 29.87 in    
Wind  
Wind Speed 9 mph (South)    
Max Wind Speed 18 mph    
Max Gust Speed -    
Visibility 10 miles    
Events      
Averages and records for this station are not official NWS values.
T = Trace of Precipitation, MM = Missing Value Source: NWS Daily Summary

Daily Weather History Graph

Daily Weather History Graph

Search for Another Location

Airport or City:

Trip Planner

Search our weather history database for the weather conditions in past years. The results will help you decide how hot, cold, wet, or windy it might be!

Date:

Astronomy

Jul. 25, 2013 Rise Set
Actual Time 6:02 AM PDT 8:23 PM PDT
Civil Twilight 5:31 AM PDT 8:53 PM PDT
Nautical Twilight 4:54 AM PDT 9:30 PM PDT
Astronomical Twilight 4:13 AM PDT 10:11 PM PDT
Moon 10:10 PM PDT (7/25) 9:34 AM PDT (7/25)
Length of Visible Light 15h 21m
Length of Day
14h 21m
Waning Gibbous, 87% of the Moon is Illuminated
Jul 25
Waning Gibbous
Jul 29
Last Quarter
Aug 6
New
Aug 14
First Quarter
Aug 20
Full

Hourly Weather History & Observations

Time (PDT) Temp. Heat Index Dew Point Humidity Pressure Visibility Wind Dir Wind Speed Gust Speed Precip Events Conditions
12:53 AM 73.0 °F - 53.1 °F 49% 29.84 in 10.0 mi SSE 8.1 mph - N/A   Clear
1:53 AM 71.1 °F - 55.0 °F 57% 29.84 in 10.0 mi SSE 9.2 mph - N/A   Clear
2:53 AM 69.1 °F - 55.0 °F 61% 29.85 in 10.0 mi SSE 8.1 mph - N/A   Clear
3:53 AM 68.0 °F - 55.0 °F 63% 29.85 in 10.0 mi South 8.1 mph - N/A   Clear
4:53 AM 66.0 °F - 55.0 °F 68% 29.86 in 10.0 mi South 8.1 mph - N/A   Clear
5:53 AM 66.0 °F - 55.0 °F 68% 29.87 in 10.0 mi South 5.8 mph - N/A   Clear
6:53 AM 64.9 °F - 55.0 °F 70% 29.88 in 10.0 mi SSE 5.8 mph - N/A   Partly Cloudy
7:53 AM 68.0 °F - 55.0 °F 63% 29.90 in 10.0 mi South 5.8 mph - N/A   Partly Cloudy
8:53 AM 70.0 °F - 55.9 °F 61% 29.91 in 10.0 mi South 4.6 mph - N/A   Partly Cloudy
9:53 AM 75.9 °F - 55.9 °F 50% 29.91 in 10.0 mi SSE 4.6 mph - N/A   Clear
10:53 AM 81.0 °F 81.1 °F 57.9 °F 45% 29.92 in 10.0 mi South 4.6 mph - N/A   Clear
11:53 AM 86.0 °F 85.4 °F 59.0 °F 40% 29.91 in 10.0 mi South 6.9 mph - N/A   Clear
12:53 PM 91.0 °F 91.5 °F 62.1 °F 38% 29.90 in 10.0 mi SW 8.1 mph - N/A   Clear
1:53 PM 93.0 °F 94.2 °F 63.0 °F 37% 29.88 in 10.0 mi SSW 9.2 mph - N/A   Clear
2:53 PM 95.0 °F 95.6 °F 62.1 °F 33% 29.86 in 10.0 mi SSW 11.5 mph - N/A   Clear
3:53 PM 96.1 °F 96.4 °F 61.0 °F 31% 29.85 in 10.0 mi South 12.7 mph - N/A   Clear
4:53 PM 96.1 °F 95.6 °F 59.0 °F 29% 29.84 in 10.0 mi South 18.4 mph - N/A   Clear
5:53 PM 93.0 °F 92.3 °F 59.0 °F 32% 29.84 in 10.0 mi South 15.0 mph - N/A   Clear
6:53 PM 89.1 °F 88.0 °F 57.9 °F 35% 29.84 in 10.0 mi South 15.0 mph - N/A   Clear
7:53 PM 82.9 °F 82.4 °F 57.0 °F 41% 29.85 in 10.0 mi South 12.7 mph - N/A   Partly Cloudy
8:53 PM 79.0 °F - 55.0 °F 44% 29.87 in 10.0 mi SSE 11.5 mph - N/A   Partly Cloudy
9:53 PM 73.9 °F - 54.0 °F 50% 29.89 in 10.0 mi SSE 15.0 mph - N/A   Partly Cloudy
10:53 PM 73.0 °F - 53.1 °F 49% 29.91 in 10.0 mi SE 12.7 mph - N/A   Clear
11:53 PM 71.1 °F - 53.1 °F 53% 29.92 in 10.0 mi SSE 10.4 mph - N/A   Clear